Home   Weather   San Marino   Past weeks
Flag for San Marino

Past Weather in San Marino, San Marino — Yesterday and Last 2 Weeks

Now
79 °F

Passing clouds.


Feels Like: 81 °F
Forecast: 73 / 59 °F
Wind: 6 mph from Northeast

Location: Rimini Airport

Current Time: Jun 19, 2019 at 11:05:30 am

Latest Report: Jun 19, 2019 at 10:20 am


Visibility: N/A

Pressure: 29.92 "Hg (27.73 "Hg at 666m altitude)

Humidity: 65%

Dew Point: 66 °F

Location of San MarinoLocation

Past Weather in San Marino — Graph

°F

San Marino Temperature Yesterday

Maximum temperature yesterday: 82 °F (at 10:50 am)
Minimum temperature yesterday: 64 °F (at 3:20 am)
Average temperature yesterday: 74 °F

High & Low Weather Summary for the Past Weeks

 TemperatureHumidityPressure
High86 °F (Jun 15, 5:50 pm)94% (Jun 9, 12:20 am)30.15 "Hg (Jun 9, 12:20 am)
Low57 °F (Jun 7, 4:20 am)28% (Jun 13, 11:20 am)29.74 "Hg (Jun 11, 2:50 am)
Average74 °F69%29.93 "Hg
* Reported Jun 4 9:20 am — Jun 19 9:50 am, San Marino. Weather by CustomWeather, © 2019

Note: Actual official high and low records may vary slightly from our data, if they occured in-between our weather recording intervals... More about our weather records

Advertising

San Marino Weather History for the Previous 24 Hours

Scroll right to see more
 ConditionsComfort  
Time TempWeatherWind HumidityBarometerVisibility
9:50 am
Wed, Jun 19
79 °FSunny.6 mph65%29.92 "Hg10 mi
9:20 am79 °FPassing clouds.3 mph65%29.92 "HgN/A
8:50 am77 °FSunny.2 mph69%29.92 "Hg10 mi
7:50 am73 °FSunny.3 mph74%29.92 "Hg10 mi
7:20 am70 °FSunny.2 mph83%29.92 "Hg10 mi
6:50 am68 °FMild.2 mph83%29.92 "HgN/A
6:20 am66 °FMild.2 mph88%29.92 "HgN/A
5:50 am66 °FMild.2 mph88%29.92 "HgN/A
5:20 am66 °FMild.3 mph83%29.89 "HgN/A
4:50 am66 °FMild.5 mph88%29.92 "HgN/A
4:20 am66 °FMild.2 mph83%29.92 "HgN/A
3:50 am66 °FMild.3 mph83%29.92 "HgN/A
3:20 am66 °FMild.2 mph88%29.92 "HgN/A
2:50 am66 °FMild.3 mph88%29.92 "HgN/A
2:20 am66 °FMild.2 mph88%29.92 "HgN/A
1:50 am66 °FMild.5 mph88%29.92 "HgN/A
1:20 am68 °FMild.3 mph83%29.92 "HgN/A
12:20 am68 °FMild.1 mph83%29.92 "HgN/A
11:50 pm
Tue, Jun 18
70 °FClear.1 mph83%29.92 "Hg10 mi
11:20 pm70 °FClear.3 mph78%29.92 "Hg10 mi
10:50 pm72 °FClear.2 mph78%29.92 "Hg10 mi
10:20 pm73 °FClear.2 mph74%29.92 "Hg10 mi
9:50 pm75 °FClear.2 mph74%29.92 "Hg10 mi
9:20 pm75 °FClear.2 mph74%29.92 "Hg10 mi
8:50 pm77 °FSunny.2 mph69%29.92 "Hg10 mi
8:20 pm79 °FSunny.3 mph61%29.92 "Hg10 mi
7:50 pm81 °FSunny.2 mph58%29.92 "Hg10 mi
7:20 pm79 °FSunny.3 mph61%29.92 "Hg10 mi
6:50 pm79 °FPassing clouds.3 mph61%29.92 "HgN/A
6:20 pm79 °FPassing clouds.5 mph65%29.92 "HgN/A
5:50 pm81 °FPassing clouds.6 mph62%29.92 "HgN/A
5:20 pm81 °FPassing clouds.6 mph62%29.92 "HgN/A
4:50 pm81 °FPassing clouds.6 mph62%29.92 "HgN/A
4:20 pm79 °FPassing clouds.6 mph65%29.92 "HgN/A
3:50 pm81 °FPassing clouds.7 mph62%29.95 "HgN/A
3:20 pm81 °FPassing clouds.7 mph58%29.95 "HgN/A
2:50 pm79 °FPassing clouds.8 mph70%29.95 "HgN/A
2:20 pm81 °FPassing clouds.10 mph70%29.95 "HgN/A
1:50 pm81 °FSunny.9 mph66%29.95 "Hg10 mi
1:20 pm81 °FPassing clouds.7 mph54%29.95 "HgN/A
12:50 pm81 °FSunny.9 mph58%29.98 "Hg10 mi
12:20 pm81 °FPassing clouds.9 mph58%29.98 "HgN/A
11:50 am82 °FPassing clouds.8 mph51%29.98 "HgN/A
11:20 am81 °FPassing clouds.8 mph54%29.98 "HgN/A
Weather by CustomWeather, © 2019

See weather overview